This demonstration page uses our WeatherBlox Daily Observations layout. Learn more.

Left ArrowRight Arrow

39.51506, -84.39828

Hourly Observations for May 15, 2020

Temp ( °F °C ) Dew Point ( °F °C ) Humidity (%) Winds ( mph kmh ) Pressure ( in mb ) Visibility ( mi km ) Precip ( " mm )
12:15 am 00:15 undefined 57 14 N/A N/A Calm 29.98 1015 N/A 0 0
12:35 am 00:35 undefined 57 14 N/A N/A Calm 29.98 1015 N/A 0 0
12:55 am 00:55 undefined 57 14 N/A N/A Calm 29.98 1015 N/A 0 0
1:15 am 01:15 undefined 55 13 N/A N/A Calm 29.97 1015 N/A 0 0
1:35 am 01:35 undefined 55 13 N/A N/A Calm 29.97 1015 N/A 0 0
1:55 am 01:55 undefined 55 13 N/A N/A Calm 29.96 1015 N/A 0 0
2:15 am 02:15 undefined 54 12 N/A N/A Calm 29.96 1015 N/A 0 0
2:35 am 02:35 undefined 54 12 N/A N/A Calm 29.95 1014 N/A 0 0
2:55 am 02:55 undefined 55 13 N/A N/A Calm 29.96 1015 N/A 0 0
3:15 am 03:15 undefined 55 13 N/A N/A Calm 29.96 1015 N/A 0 0
3:35 am 03:35 undefined 54 12 N/A N/A Calm 29.96 1015 N/A 0 0
3:55 am 03:55 undefined 55 13 N/A N/A WSW 3 6 29.95 1014 N/A 0 0
4:15 am 04:15 undefined 56 13.6 56 13.4 99 99 WSW 5 7 29.96 1015 N/A 0 0
4:35 am 04:35 Cloudy 58 14.3 56 13.5 95 95 WSW 3 6 29.96 1015 N/A 0 0
4:55 am 04:55 undefined 59 15.1 56 13.3 89 89 WSW 6 9 29.96 1014 N/A 0 0
5:15 am 05:15 undefined 60 15.4 56 13.4 88 88 WSW 6 9 29.96 1014 N/A 0 0
5:35 am 05:35 undefined 60 15.3 56 13.5 89 89 SW 7 11 29.96 1014 N/A 0 0
5:55 am 05:55 undefined 60 15.8 57 13.7 87 87 WSW 7 11 29.95 1014 N/A 0 0
6:15 am 06:15 undefined 60 15.8 57 13.8 88 88 SW 6 9 29.95 1014 N/A 0 0
6:35 am 06:35 undefined 61 15.9 57 13.9 88 88 SW 7 11 29.95 1014 N/A 0 0
6:55 am 06:55 undefined 62 16.7 58 14.2 85 85 SW 8 13 29.95 1014 N/A 0 0
7:15 am 07:15 Partly Cloudy 64 17.9 58 14.6 81 81 SW 10 17 29.95 1014 N/A 0 0
7:35 am 07:35 Partly Cloudy 65 18.5 58 14.7 79 79 SW 10 17 29.96 1014 N/A 0 0
7:55 am 07:55 Partly Cloudy 66 19.1 59 14.9 77 77 SW 10 17 29.96 1014 N/A 0 0
8:15 am 08:15 Mostly Cloudy 68 20 59 15.1 74 74 SW 12 19 29.95 1014 N/A 0 0
8:35 am 08:35 Cloudy 67 19.5 59 15.1 76 76 SW 9 15 29.96 1014 N/A 0 0
8:55 am 08:55 Cloudy 67 19.5 59 15.2 76 76 SW 9 15 29.96 1014 N/A 0 0
9:15 am 09:15 Cloudy 67 19.5 60 15.6 78 78 SW 9 15 29.96 1014 N/A 0 0
9:35 am 09:35 Cloudy 68 19.9 60 15.8 77 77 SSW 9 15 29.95 1014 N/A 0 0
9:55 am 09:55 Cloudy 69 20.3 61 16.3 78 78 SSW 8 13 29.95 1014 N/A 0 0
10:15 am 10:15 Cloudy 69 20.7 61 16.3 76 76 SSW 10 17 29.94 1014 N/A 0 0
10:35 am 10:35 Partly Cloudy 73 22.7 62 16.6 69 69 SW 13 20 29.94 1014 N/A 0 0
10:55 am 10:55 Cloudy 73 22.9 61 15.9 65 65 SW 21 33 29.93 1013 N/A 0 0
11:15 am 11:15 Cloudy 74 23.1 61 16.1 65 65 WSW 20 31 29.93 1013 N/A 0 0
11:35 am 11:35 Cloudy 73 22.9 61 16 65 65 SW 21 33 29.94 1014 N/A 0 0
11:55 am 11:55 Cloudy 74 23.1 61 15.9 64 64 SW 24 39 29.94 1014 N/A 0 0
12:15 pm 12:15 Cloudy 74 23.3 61 16.1 64 64 WSW 24 39 29.95 1014 N/A 0 0
12:35 pm 12:35 Cloudy 73 22.5 61 16.1 67 67 WSW 23 37 29.94 1014 N/A 0 0
12:55 pm 12:55 Cloudy 73 22.7 61 16.2 67 67 WSW 23 37 29.93 1013 N/A 0 0
1:15 pm 13:15 Cloudy 74 23.5 62 16.5 65 65 WSW 26 43 29.93 1013 N/A 0 0
1:35 pm 13:35 Cloudy 72 22 60 15.6 67 67 WSW 30 48 29.94 1014 N/A 0 0
1:55 pm 13:55 Partly Cloudy 72 22 61 16.3 70 70 SW 23 37 29.93 1014 N/A 0 0
2:15 pm 14:15 Mostly Cloudy 71 21.5 60 15.8 70 70 WSW 21 33 29.94 1014 N/A 0 0
2:35 pm 14:35 Mostly Cloudy 70 21.1 61 16 73 73 SW 21 33 29.93 1014 N/A 0 0
2:55 pm 14:55 Cloudy 68 20.1 63 17 82 82 WSW 17 28 29.94 1014 N/A 0 0
3:15 pm 15:15 Mostly Cloudy 70 21 64 17.7 82 82 WSW 18 30 29.95 1014 N/A 0 0
3:35 pm 15:35 Mostly Cloudy 71 21.4 63 17.3 78 78 WSW 18 30 29.94 1014 N/A 0 0
3:55 pm 15:55 Cloudy 70 20.9 63 17.2 79 79 WSW 14 22 29.94 1014 N/A 0 0
4:15 pm 16:15 Cloudy 70 21.2 63 17 77 77 WSW 16 26 29.94 1014 N/A 0 0
4:35 pm 16:35 Cloudy 71 21.9 63 17.3 75 75 SW 15 24 29.94 1014 N/A 0 0
4:55 pm 16:55 Cloudy 73 22.7 64 17.5 73 73 WSW 18 30 29.94 1014 N/A 0 0
5:15 pm 17:15 Mostly Cloudy 73 22.7 63 17.3 72 72 WSW 18 30 29.94 1014 N/A 0 0
5:35 pm 17:35 Mostly Cloudy 73 22.5 64 17.5 73 73 W 13 20 29.94 1014 N/A 0 0
5:55 pm 17:55 Cloudy 70 21 65 18.3 85 85 W 8 13 29.95 1014 N/A 0 0
6:15 pm 18:15 Cloudy 70 21.3 64 18 82 82 W 10 17 29.95 1014 N/A 0 0
6:35 pm 18:35 Mostly Cloudy 71 21.7 64 17.8 79 79 W 7 11 29.95 1014 N/A 0 0
6:55 pm 18:55 Partly Cloudy 72 22.3 64 17.9 76 76 W 8 13 29.95 1014 N/A 0 0
7:15 pm 19:15 Cloudy 71 21.7 64 17.6 78 78 W 8 13 29.96 1015 N/A 0 0
7:35 pm 19:35 Cloudy 71 21.7 64 17.6 78 78 W 6 9 29.96 1015 N/A 0 0
7:55 pm 19:55 Sunny 71 21.6 64 17.8 79 79 W 3 6 29.96 1015 N/A 0 0
8:15 pm 20:15 Sunny 69 20.8 64 17.6 82 82 Calm 29.96 1015 N/A 0 0
8:35 pm 20:35 undefined 67 19.4 63 17.2 87 87 Calm 29.97 1015 N/A 0 0
8:55 pm 20:55 undefined 65 18.3 63 17.2 93 93 Calm 29.98 1015 N/A 0 0
9:15 pm 21:15 undefined 65 18.2 64 17.9 98 98 Calm 29.98 1015 N/A 0 0
9:35 pm 21:35 undefined 64 18 64 17.8 99 99 Calm 29.99 1016 N/A 0 0
9:55 pm 21:55 undefined 63 17 62 16.8 99 99 Calm 30 1016 N/A 0 0
10:15 pm 22:15 undefined 61 15.9 61 15.9 100 100 Calm 30 1016 N/A 0 0
10:35 pm 22:35 undefined 61 16 61 16 100 100 NNE 6 9 30 1016 N/A 0 0
10:55 pm 22:55 undefined 61 16 61 16 100 100 Calm 30.01 1016 N/A 0 0
11:15 pm 23:15 undefined 63 17 N/A N/A Calm 30.01 1016 N/A 0 0
11:35 pm 23:35 undefined 61 16 N/A N/A Calm 30.01 1016 N/A 0 0
11:55 pm 23:55 undefined 59 15 N/A N/A Calm 30.02 1016 N/A 0 0

Powered by AerisWeather